Location: Joplin, MO
(37.0842°N, 94.5133°W)
Time: 21:41:43
(UTC+02:00)

Courier 1B Rocket - Pass Details

Date: 07 April 2023
Orbit: 920 x 1202 km, 28.2° (Epoch: 05 June)

Event Time Altitude Azimuth Distance (km) Brightness Sun altitude
Rises 02:02:45 0° 261° (W) 4,090 10.3 7.5°
Reaches altitude 10° 02:05:48 10° 254° (WSW) 3,113 9.4 6.9°
Maximum altitude 02:12:57 41° 188° (S) 1,615 6.3 5.5°
Drops below altitude 10° 02:19:46 10° 120° (ESE) 2,972 7.0 4.1°
Sets 02:22:37 0° 114° (ESE) 3,887 7.5 3.6°
